sat.trackr.live / text

‹ back to catalog

STARLINK-30905

NORAD 58356 · 2023-177F

PAYLOAD ACTIVE UNKNOWN

§ Identity

Operator
Country
US
Launch date
2023-11-18
Launch site
AFETR
Launch vehicle
Mass (kg)
RCS (m²)

Purposes: comms

External: N2YO · Heavens-Above · Gunter

§ Orbital elements

Epoch: 2026-05-24T19:52:37.577280Z

Period
94.27 min
Inclination
43.0056°
Eccentricity
0.0001781
Mean motion
15.27575463 rev/d
Perigee alt
481.8 km
Apogee alt
484.3 km
Semi-major
6,861.2 km
B*
1.2260e-5
RAAN
280.4282°
Arg perigee
265.5825°
Mean anomaly
94.4823°
Rev number
13,981

§ Raw data

STARLINK-309051 58356U 23177F   26144.82821270  .00000075  00000+0  12260-4 0  99902 58356  43.0056 280.4282 0001781 265.5825  94.4823 15.27575463139810

JSON: /api/v1/satellites/58356 · /tle

For live sub-satellite position, see the globe view (requires WebGL).

§ Visibility from observer

Set your observer location to see the next 7 days of passes ≥ 10°. The values pass through the URL so the page stays shareable.

No JS? Fill the form by hand. The geolocation button needs JavaScript.